timestamp,surface_pressure_avg,surface_temp_avg,battery_voltage,lat,long
2022-06-11 00:09:01+00:00,251.5181,7.6,11.93,47.84626,-54.09684
2022-06-11 00:19:01+00:00,244.2848,7.6,11.93,47.84626,-54.09684
2022-06-11 00:29:01+00:00,240.6281,7.66,11.93,47.84626,-54.09684
2022-06-11 00:39:01+00:00,234.1598,7.7,11.93,47.84626,-54.09684
2022-06-11 00:49:01+00:00,228.1998,7.7,11.93,47.84626,-54.09684
2022-06-11 00:59:01+00:00,222.4348,7.7,11.93,47.84626,-54.09684
2022-06-11 01:09:01+00:00,219.5131,7.79,11.93,47.84626,-54.09684
2022-06-11 01:19:01+00:00,216.1531,7.8,11.93,47.84626,-54.09684
2022-06-11 01:29:01+00:00,211.7281,7.8,11.93,47.84626,-54.09684
2022-06-11 01:39:01+00:00,209.6181,7.8,11.93,47.84626,-54.09684
2022-06-11 01:49:01+00:00,209.2314,7.83,11.93,47.84626,-54.09684
2022-06-11 01:59:01+00:00,207.6147,7.86,11.93,47.84626,-54.09684
2022-06-11 02:09:01+00:00,206.3798,7.88,11.93,47.84626,-54.09684
2022-06-11 02:19:00+00:00,207.6631,7.89,11.93,47.84626,-54.09684
2022-06-11 02:29:00+00:00,206.1664,7.89,11.93,47.84626,-54.09684
2022-06-11 02:39:00+00:00,204.1231,7.89,11.93,47.84626,-54.09684
2022-06-11 02:49:00+00:00,205.2881,7.89,11.93,47.84626,-54.09684
2022-06-11 02:59:00+00:00,205.3198,7.8,11.93,47.84626,-54.09684
2022-06-11 03:09:00+00:00,205.3098,7.8,11.93,47.84626,-54.09684
2022-06-11 03:19:00+00:00,207.2331,7.8,11.93,47.84626,-54.09684
2022-06-11 03:29:00+00:00,207.2648,7.8,11.93,47.84626,-54.09684
2022-06-11 03:39:00+00:00,206.3864,7.87,11.93,47.84626,-54.09684
2022-06-11 03:49:00+00:00,208.8098,7.9,11.93,47.84626,-54.09684
2022-06-11 03:59:00+00:00,210.9048,7.9,11.93,47.84626,-54.09684
2022-06-11 04:09:00+00:00,212.3498,7.98,11.93,47.84626,-54.09684
2022-06-11 04:19:01+00:00,214.4247,8.0,11.93,47.84626,-54.09684
2022-06-11 04:29:01+00:00,217.2748,8.0,11.93,47.84626,-54.09684
2022-06-11 04:39:01+00:00,221.0481,8.0,11.93,47.84626,-54.09684
2022-06-11 04:49:01+00:00,226.2681,8.04,11.93,47.84626,-54.09684
2022-06-11 04:59:01+00:00,231.5464,8.09,11.93,47.84626,-54.09684
2022-06-11 05:09:01+00:00,237.4164,8.09,11.93,47.84626,-54.09684
2022-06-11 05:19:00+00:00,239.9298,8.09,11.93,47.84626,-54.09684
2022-06-11 05:29:00+00:00,243.3381,8.09,11.93,47.84626,-54.09684
2022-06-11 05:39:00+00:00,248.3048,8.1,11.93,47.84626,-54.09684
2022-06-11 05:49:00+00:00,254.343,8.1,11.93,47.84626,-54.09684
2022-06-11 05:59:00+00:00,260.2681,8.1,11.93,47.84626,-54.09684
2022-06-11 06:09:00+00:00,264.6547,8.1,11.93,47.84626,-54.09684
2022-06-11 06:19:01+00:00,268.8264,8.1,11.93,47.84626,-54.09684
2022-06-11 06:29:01+00:00,276.8848,8.1,11.93,47.84626,-54.09684
2022-06-11 06:39:01+00:00,282.4447,8.1,11.93,47.84626,-54.09684
2022-06-11 06:49:01+00:00,284.7463,8.1,11.93,47.84626,-54.09684
2022-06-11 06:59:01+00:00,290.8314,8.12,11.93,47.84626,-54.09684
2022-06-11 07:09:01+00:00,296.1813,8.15,11.93,47.84626,-54.09684
2022-06-11 07:19:00+00:00,298.6114,8.19,11.93,47.84626,-54.09684
2022-06-11 07:29:00+00:00,299.143,8.2,11.93,47.84626,-54.09684
2022-06-11 07:39:00+00:00,308.4497,8.2,11.93,47.84626,-54.09684
2022-06-11 07:49:00+00:00,311.9479,8.2,11.93,47.84626,-54.09684
2022-06-11 07:59:00+00:00,313.058,8.2,11.93,47.84626,-54.09684
2022-06-11 08:09:00+00:00,312.398,8.2,11.93,47.84626,-54.09684
2022-06-11 08:19:00+00:00,314.6014,8.22,11.93,47.84626,-54.09684
2022-06-11 08:29:00+00:00,314.4547,8.21,11.93,47.84626,-54.09684
2022-06-11 08:39:00+00:00,314.298,8.2,11.93,47.84626,-54.09684
2022-06-11 08:49:00+00:00,313.2947,8.2,11.93,47.84626,-54.09684
2022-06-11 08:59:00+00:00,312.5047,8.2,11.93,47.84626,-54.09684
2022-06-11 09:09:00+00:00,313.2863,8.2,11.93,47.84626,-54.09684
2022-06-11 09:19:00+00:00,313.4063,8.2,11.93,47.84626,-54.09684
2022-06-11 09:29:00+00:00,313.0696,8.2,11.93,47.84626,-54.09684
2022-06-11 09:39:00+00:00,312.4297,8.2,11.93,47.84626,-54.09684
2022-06-11 09:49:00+00:00,309.493,8.2,11.93,47.84626,-54.09684
2022-06-11 09:59:00+00:00,308.6997,8.2,11.93,47.84626,-54.09684
2022-06-11 10:09:00+00:00,306.508,8.2,11.93,47.84626,-54.09684
2022-06-11 10:19:00+00:00,304.123,8.2,11.93,47.84626,-54.09684
2022-06-11 10:29:00+00:00,296.8931,8.23,11.93,47.84626,-54.09684
2022-06-11 10:39:00+00:00,292.7097,8.26,11.93,47.84626,-54.09684
2022-06-11 10:49:00+00:00,287.6263,8.27,11.93,47.84626,-54.09684
2022-06-11 10:59:00+00:00,282.9797,8.28,11.93,47.84626,-54.09684
2022-06-11 11:09:00+00:00,277.5948,8.29,11.93,47.84626,-54.09684
2022-06-11 11:19:00+00:00,270.7048,8.3,11.93,47.84626,-54.09684
2022-06-11 11:29:00+00:00,266.7597,8.3,11.93,47.84626,-54.09684
2022-06-11 11:39:00+00:00,259.6214,8.31,11.93,47.84626,-54.09684
2022-06-11 11:49:00+00:00,249.4014,8.38,11.93,47.84626,-54.09684
2022-06-11 11:59:00+00:00,243.0431,8.4,11.93,47.84626,-54.09684
2022-06-11 12:09:00+00:00,239.4348,8.4,11.93,47.84626,-54.09684
2022-06-11 12:19:00+00:00,229.2431,8.4,11.93,47.84626,-54.09684
2022-06-11 12:29:00+00:00,218.1181,8.4,11.93,47.84626,-54.09684
2022-06-11 12:39:00+00:00,215.1231,8.4,11.93,47.84626,-54.09684
2022-06-11 12:49:00+00:00,210.1648,8.4,11.93,47.84626,-54.09684
2022-06-11 12:59:00+00:00,202.1165,8.4,11.93,47.84626,-54.09684
2022-06-11 13:09:00+00:00,196.3282,8.4,11.93,47.84626,-54.09684
2022-06-11 13:19:01+00:00,195.5798,8.42,12.01,47.84626,-54.09684
2022-06-11 13:29:01+00:00,194.0265,8.46,12.01,47.84626,-54.09684
2022-06-11 13:39:01+00:00,189.3981,8.5,12.01,47.84626,-54.09684
2022-06-11 13:49:01+00:00,187.9231,8.59,12.01,47.84626,-54.09684
2022-06-11 13:59:01+00:00,186.9764,8.63,12.01,47.84626,-54.09684
2022-06-11 14:09:01+00:00,183.9281,8.7,12.01,47.84626,-54.09684
2022-06-11 14:19:00+00:00,182.5765,8.7,12.01,47.84626,-54.09684
2022-06-11 14:29:00+00:00,183.2215,8.7,12.01,47.84626,-54.09684
2022-06-11 14:39:00+00:00,180.9348,8.78,12.01,47.84626,-54.09684
2022-06-11 14:49:00+00:00,176.6965,8.8,12.01,47.84626,-54.09684
2022-06-11 14:59:00+00:00,179.4615,8.8,12.01,47.84626,-54.09684
2022-06-11 15:09:00+00:00,182.0915,8.8,12.01,47.84626,-54.09684
2022-06-11 15:19:00+00:00,179.8631,8.8,12.01,47.84626,-54.09684
2022-06-11 15:29:00+00:00,181.6998,8.8,12.01,47.84626,-54.09684
2022-06-11 15:39:00+00:00,186.0414,8.8,12.01,47.84626,-54.09684
2022-06-11 15:49:00+00:00,187.5965,8.7,12.01,47.84626,-54.09684
2022-06-11 15:59:00+00:00,189.9348,8.7,12.01,47.84626,-54.09684
2022-06-11 16:09:00+00:00,194.9498,8.69,12.01,47.84626,-54.09684
2022-06-11 16:19:00+00:00,196.5748,8.7,12.09,47.84626,-54.09684
2022-06-11 16:29:00+00:00,198.0615,8.7,12.09,47.84626,-54.09684
2022-06-11 16:39:00+00:00,204.6881,8.68,12.09,47.84626,-54.09684
2022-06-11 16:49:00+00:00,210.4865,8.65,12.09,47.84626,-54.09684
2022-06-11 16:59:00+00:00,213.6281,8.64,12.09,47.84626,-54.09684
2022-06-11 17:09:00+00:00,220.8615,8.6,12.09,47.84626,-54.09684
2022-06-11 17:19:00+00:00,230.3231,8.6,12.09,47.84626,-54.09684
2022-06-11 17:29:00+00:00,235.3815,8.6,12.09,47.84626,-54.09684
2022-06-11 17:39:00+00:00,238.7281,8.6,12.09,47.84626,-54.09684
2022-06-11 17:49:00+00:00,246.0181,8.6,12.09,47.84626,-54.09684
2022-06-11 17:59:00+00:00,254.4081,8.57,12.09,47.84626,-54.09684
2022-06-11 18:09:00+00:00,260.6397,8.55,12.09,47.84626,-54.09684
2022-06-11 18:19:00+00:00,267.4814,8.59,12.09,47.84626,-54.09684
2022-06-11 18:29:00+00:00,276.9314,8.59,12.09,47.84626,-54.09684
2022-06-11 18:39:00+00:00,284.2947,8.52,12.09,47.84626,-54.09684
2022-06-11 18:49:00+00:00,291.0664,8.59,12.09,47.84626,-54.09684
2022-06-11 18:59:00+00:00,298.658,8.6,12.09,47.84626,-54.09684
2022-06-11 19:09:00+00:00,307.8529,8.6,12.09,47.84626,-54.09684
2022-06-11 19:19:00+00:00,314.9996,8.6,12.01,47.84626,-54.09684
2022-06-11 19:29:00+00:00,322.553,8.5,12.01,47.84626,-54.09684
2022-06-11 19:39:00+00:00,327.1379,8.5,12.01,47.84626,-54.09684
2022-06-11 19:49:00+00:00,329.7297,8.52,12.01,47.84626,-54.09684
2022-06-11 19:59:00+00:00,334.5579,8.57,12.01,47.84626,-54.09684
2022-06-11 20:09:00+00:00,339.8230000000001,8.57,12.01,47.84626,-54.09684
2022-06-11 20:19:00+00:00,343.2913,8.58,12.01,47.84626,-54.09684
2022-06-11 20:29:00+00:00,345.4745,8.6,12.01,47.84626,-54.09684
2022-06-11 20:39:00+00:00,349.0413,8.6,12.01,47.84626,-54.09684
2022-06-11 20:49:00+00:00,354.5579,8.59,12.01,47.84626,-54.09684
2022-06-11 20:59:00+00:00,353.8563,8.5,12.01,47.84626,-54.09684
2022-06-11 21:09:00+00:00,351.6212,8.5,12.01,47.84626,-54.09684
2022-06-11 21:19:01+00:00,353.048,8.5,12.01,47.84626,-54.09684
2022-06-11 21:29:01+00:00,353.173,8.5,12.01,47.84626,-54.09684
2022-06-11 21:39:01+00:00,349.9446,8.5,12.01,47.84626,-54.09684
2022-06-11 21:49:01+00:00,346.9413,8.5,12.01,47.84626,-54.09684
2022-06-11 21:59:01+00:00,350.12300000000016,8.5,12.01,47.84626,-54.09684
2022-06-11 22:09:01+00:00,350.5513,8.5,12.01,47.84626,-54.09684
2022-06-11 22:19:01+00:00,345.7479,8.5,12.01,47.84626,-54.09684
2022-06-11 22:29:01+00:00,344.3563,8.5,12.01,47.84626,-54.09684
2022-06-11 22:39:01+00:00,343.4146,8.5,12.01,47.84626,-54.09684
2022-06-11 22:49:01+00:00,338.7946,8.5,12.01,47.84626,-54.09684
2022-06-11 22:59:01+00:00,332.3563,8.5,12.01,47.84626,-54.09684
2022-06-11 23:09:01+00:00,328.9146,8.5,12.01,47.84626,-54.09684
2022-06-11 23:19:00+00:00,324.5464,8.5,11.93,47.84626,-54.09684
2022-06-11 23:29:00+00:00,313.8447,8.5,11.93,47.84626,-54.09684
2022-06-11 23:39:00+00:00,307.2596,8.57,11.93,47.84626,-54.09684
2022-06-11 23:49:00+00:00,302.3646,8.59,11.93,47.84626,-54.09684
2022-06-11 23:59:00+00:00,293.903,8.6,11.93,47.84626,-54.09684
